,,PA_Meas_PMT16A,,PR_Meas_QMR101_102,,RH_Meas_QMH101,,SR_Meas_QMS101,,TA_Meas_QMH101,,GenWind,,GenWind,
time,status,PA,status,PR,status,RH,status,SR,status,TA,status,DirAvg,status,SpdAvg,
2012-06-23, 00:00:05,VALID,918.155,VALID,0,VALID,96.9622,VALID,0,VALID,18.7488,VALID,158,VALID,0,
2012-06-23, 00:01:05,VALID,918.134,VALID,0,VALID,96.9012,VALID,0,VALID,18.7279,VALID,160,VALID,0.0417969,
2012-06-23, 00:02:05,VALID,918.142,VALID,0,VALID,96.9012,VALID,0,VALID,18.7293,VALID,167,VALID,0,
2012-06-23, 00:03:05,VALID,918.112,VALID,0,VALID,96.9012,VALID,0.107441,VALID,18.7293,VALID,173,VALID,0,
2012-06-23, 00:04:05,VALID,918.105,VALID,0,VALID,96.8784,VALID,0,VALID,18.6903,VALID,169,VALID,0,
2012-06-23, 00:05:05,VALID,918.109,VALID,0,VALID,96.9089,VALID,0,VALID,18.7098,VALID,162,VALID,0,
2012-06-23, 00:06:05,VALID,918.133,VALID,0,VALID,96.9012,VALID,0,VALID,18.6903,VALID,162,VALID,0,
2012-06-23, 00:07:05,VALID,918.11,VALID,0,VALID,96.825,VALID,0,VALID,18.6903,VALID,153,VALID,0,
2012-06-23, 00:08:05,VALID,918.097,VALID,0,VALID,96.7716,VALID,0,VALID,18.6708,VALID,156,VALID,0,
2012-06-23, 00:09:05,VALID,918.104,VALID,0,VALID,96.7183,VALID,0,VALID,18.6708,VALID,160,VALID,0,
2012-06-23, 00:10:05,VALID,918.157,VALID,0,VALID,96.6725,VALID,0,VALID,18.6708,VALID,144,VALID,0,
2012-06-23, 00:11:05,VALID,918.15,VALID,0,VALID,96.5506,VALID,0,VALID,18.6513,VALID,145,VALID,0.0847656,
2012-06-23, 00:12:05,VALID,918.134,VALID,0,VALID,96.3829,VALID,0,VALID,18.6513,VALID,140,VALID,0,
2012-06-23, 00:13:05,VALID,918.162,VALID,0,VALID,96.2304,VALID,0,VALID,18.6903,VALID,146,VALID,0.0417969,
2012-06-23, 00:14:05,VALID,918.161,VALID,0,VALID,95.9407,VALID,0,VALID,18.7293,VALID,157,VALID,0,
2012-06-23, 00:15:05,VALID,918.159,VALID,0,VALID,95.4757,VALID,0.107441,VALID,18.7488,VALID,156,VALID,0.0207031,
2012-06-23, 00:16:05,VALID,918.175,VALID,0,VALID,94.8582,VALID,0,VALID,18.8073,VALID,154,VALID,0.434375,
2012-06-23, 00:17:05,VALID,918.17,VALID,0,VALID,94.4008,VALID,0,VALID,18.8073,VALID,151,VALID,0.0148437,
2012-06-23, 00:18:05,VALID,918.165,VALID,0,VALID,94.1187,VALID,0,VALID,18.7488,VALID,150,VALID,0,
2012-06-23, 00:19:05,VALID,918.192,VALID,0,VALID,93.9662,VALID,0,VALID,18.7293,VALID,149,VALID,0,
2012-06-23, 00:20:05,VALID,918.182,VALID,0,VALID,93.951,VALID,0,VALID,18.7098,VALID,163,VALID,0,
2012-06-23, 00:21:05,VALID,918.139,VALID,0,VALID,93.7451,VALID,0,VALID,18.6903,VALID,152,VALID,0.800391,
2012-06-23, 00:22:05,VALID,918.107,VALID,0,VALID,93.5927,VALID,0,VALID,18.7293,VALID,147,VALID,0.232812,
2012-06-23, 00:23:05,VALID,918.11,VALID,0,VALID,93.425,VALID,0,VALID,18.7293,VALID,144,VALID,0,
2012-06-23, 00:24:05,VALID,918.115,VALID,0,VALID,93.2191,VALID,0,VALID,18.7488,VALID,137,VALID,0,
2012-06-23, 00:25:05,VALID,918.147,VALID,0,VALID,93.2725,VALID,0,VALID,18.7098,VALID,140,VALID,0,
2012-06-23, 00:26:05,VALID,918.129,VALID,0,VALID,93.2725,VALID,0,VALID,18.7503,VALID,166,VALID,0.00273437,
2012-06-23, 00:27:05,VALID,918.163,VALID,0,VALID,93.1124,VALID,0,VALID,18.7293,VALID,143,VALID,0.362891,
2012-06-23, 00:28:05,VALID,918.155,VALID,0,VALID,93.0362,VALID,0,VALID,18.7697,VALID,141,VALID,0,
2012-06-23, 00:29:05,VALID,918.184,VALID,0,VALID,93.12,VALID,0,VALID,18.7098,VALID,149,VALID,0.003125,
2012-06-23, 00:30:05,VALID,918.16,VALID,0,VALID,93.3106,VALID,0,VALID,18.6918,VALID,139,VALID,0,
2012-06-23, 00:31:05,VALID,918.162,VALID,0,VALID,93.5774,VALID,0,VALID,18.6333,VALID,144,VALID,0,
2012-06-23, 00:32:05,VALID,918.136,VALID,0,VALID,93.768,VALID,0,VALID,18.5943,VALID,142,VALID,0,
2012-06-23, 00:33:05,VALID,918.125,VALID,0,VALID,93.8976,VALID,0,VALID,18.5553,VALID,140,VALID,0,
2012-06-23, 00:34:05,VALID,918.161,VALID,0,VALID,94.012,VALID,0,VALID,18.4954,VALID,148,VALID,0,
2012-06-23, 00:35:05,VALID,918.183,VALID,0,VALID,94.1949,VALID,0,VALID,18.5163,VALID,145,VALID,0,
2012-06-23, 00:36:05,VALID,918.185,VALID,0,VALID,94.2788,VALID,0,VALID,18.4759,VALID,134,VALID,0,
2012-06-23, 00:37:05,VALID,918.174,VALID,0,VALID,94.3855,VALID,0,VALID,18.4564,VALID,143,VALID,0,
2012-06-23, 00:38:05,VALID,918.201,VALID,0,VALID,94.4846,VALID,0,VALID,18.4968,VALID,135,VALID,0,
2012-06-23, 00:39:05,VALID,918.216,VALID,0,VALID,94.477,VALID,0,VALID,18.4968,VALID,129,VALID,0,
2012-06-23, 00:40:05,VALID,918.188,VALID,0,VALID,94.4999,VALID,0,VALID,18.4773,VALID,129,VALID,0,
2012-06-23, 00:41:05,VALID,918.201,VALID,0,VALID,94.5456,VALID,0,VALID,18.4773,VALID,137,VALID,0,
2012-06-23, 00:42:05,VALID,918.191,VALID,0,VALID,94.599,VALID,0,VALID,18.4773,VALID,132,VALID,0,
2012-06-23, 00:43:05,VALID,918.163,VALID,0,VALID,94.6066,VALID,0,VALID,18.4968,VALID,133,VALID,0,
2012-06-23, 00:44:05,VALID,918.194,VALID,0,VALID,94.6828,VALID,0,VALID,18.4773,VALID,133,VALID,0,
2012-06-23, 00:45:05,VALID,918.179,VALID,0,VALID,94.7972,VALID,0,VALID,18.4564,VALID,133,VALID,0,
2012-06-23, 00:46:05,VALID,918.174,VALID,0,VALID,94.9039,VALID,0,VALID,18.4773,VALID,133,VALID,0,
2012-06-23, 00:47:05,VALID,918.221,VALID,0,VALID,95.003,VALID,0,VALID,18.4968,VALID,133,VALID,0,
2012-06-23, 00:48:05,VALID,918.25,VALID,0,VALID,95.0792,VALID,0,VALID,18.4578,VALID,133,VALID,0,
2012-06-23, 00:49:05,VALID,918.266,VALID,0,VALID,95.125,VALID,0,VALID,18.4188,VALID,133,VALID,0,
2012-06-23, 00:50:05,VALID,918.242,VALID,0,VALID,95.2851,VALID,0,VALID,18.3993,VALID,133,VALID,0,
2012-06-23, 00:51:05,VALID,918.222,VALID,0,VALID,95.4147,VALID,0,VALID,18.4383,VALID,133,VALID,0,
2012-06-23, 00:52:05,VALID,918.198,VALID,0,VALID,95.5214,VALID,0,VALID,18.4578,VALID,133,VALID,0,
2012-06-23, 00:53:05,VALID,918.212,VALID,0,VALID,95.4985,VALID,0,VALID,18.4188,VALID,133,VALID,0,
2012-06-23, 00:54:05,VALID,918.194,VALID,0,VALID,95.5976,VALID,0,VALID,18.4188,VALID,133,VALID,0,
2012-06-23, 00:55:05,VALID,918.18,VALID,0,VALID,95.7806,VALID,0,VALID,18.4174,VALID,133,VALID,0,
2012-06-23, 00:56:05,VALID,918.186,VALID,0,VALID,95.8721,VALID,0,VALID,18.4773,VALID,133,VALID,0,
2012-06-23, 00:57:05,VALID,918.223,VALID,0,VALID,95.773,VALID,0,VALID,18.4759,VALID,133,VALID,0,
2012-06-23, 00:58:05,VALID,918.249,VALID,0,VALID,95.7196,VALID,0,VALID,18.4564,VALID,133,VALID,0,
2012-06-23, 00:59:05,VALID,918.222,VALID,0,VALID,95.8187,VALID,0,VALID,18.4773,VALID,133,VALID,0,
2012-06-23, 01:00:05,VALID,918.21,VALID,0,VALID,95.8797,VALID,0,VALID,18.4968,VALID,133,VALID,0,
2012-06-23, 01:01:05,VALID,918.217,VALID,0,VALID,95.9102,VALID,0,VALID,18.4968,VALID,133,VALID,0,
2012-06-23, 01:02:05,VALID,918.199,VALID,0,VALID,95.9712,VALID,0,VALID,18.4968,VALID,350,VALID,0,
2012-06-23, 01:03:05,VALID,918.167,VALID,0,VALID,96.0474,VALID,0,VALID,18.4773,VALID,357,VALID,0,
2012-06-23, 01:04:05,VALID,918.163,VALID,0,VALID,96.1236,VALID,0,VALID,18.4759,VALID,357,VALID,0,
2012-06-23, 01:05:05,VALID,918.144,VALID,0,VALID,96.1846,VALID,0,VALID,18.5163,VALID,357,VALID,0,
2012-06-23, 01:06:05,VALID,918.131,VALID,0,VALID,96.238,VALID,0,VALID,18.4968,VALID,357,VALID,0,
2012-06-23, 01:07:05,VALID,918.118,VALID,0,VALID,96.4133,VALID,0,VALID,18.5553,VALID,357,VALID,0,
2012-06-23, 01:08:05,VALID,918.12,VALID,0,VALID,96.5048,VALID,0,VALID,18.5943,VALID,357,VALID,0,
2012-06-23, 01:09:05,VALID,918.094,VALID,0,VALID,96.5658,VALID,0,VALID,18.6333,VALID,357,VALID,0,
2012-06-23, 01:10:05,VALID,918.091,VALID,0,VALID,96.5963,VALID,0,VALID,18.6319,VALID,357,VALID,0,
2012-06-23, 01:11:05,VALID,918.09,VALID,0,VALID,96.6192,VALID,0,VALID,18.6723,VALID,357,VALID,0,
2012-06-23, 01:12:05,VALID,918.109,VALID,0,VALID,96.5658,VALID,0,VALID,18.6528,VALID,357,VALID,0,
2012-06-23, 01:13:05,VALID,918.119,VALID,0,VALID,96.5353,VALID,0,VALID,18.6124,VALID,357,VALID,0,
2012-06-23, 01:14:05,VALID,918.146,VALID,0,VALID,96.5582,VALID,0,VALID,18.6124,VALID,357,VALID,0,
2012-06-23, 01:15:05,VALID,918.172,VALID,0,VALID,96.5963,VALID,0,VALID,18.5929,VALID,357,VALID,0,
2012-06-23, 01:16:05,VALID,918.204,VALID,0,VALID,96.5963,VALID,0,VALID,18.5929,VALID,357,VALID,0,
2012-06-23, 01:17:05,VALID,918.203,VALID,0,VALID,96.6725,VALID,0,VALID,18.5929,VALID,357,VALID,0,
2012-06-23, 01:18:05,VALID,918.198,VALID,0,VALID,96.6954,VALID,0,VALID,18.6333,VALID,357,VALID,0,
2012-06-23, 01:19:05,VALID,918.198,VALID,0,VALID,96.7411,VALID,0,VALID,18.6528,VALID,357,VALID,0,
2012-06-23, 01:20:05,VALID,918.143,VALID,0,VALID,96.7107,VALID,0,VALID,18.6528,VALID,357,VALID,0,
2012-06-23, 01:21:05,VALID,918.127,VALID,0,VALID,96.764,VALID,0,VALID,18.6708,VALID,357,VALID,0,
2012-06-23, 01:22:05,VALID,918.122,VALID,0,VALID,96.9089,VALID,0,VALID,18.6903,VALID,357,VALID,0,
2012-06-23, 01:23:05,VALID,918.109,VALID,0,VALID,97.1757,VALID,0,VALID,18.8477,VALID,357,VALID,0,
2012-06-23, 01:24:05,VALID,918.094,VALID,0,VALID,97.1223,VALID,0,VALID,18.9647,VALID,357,VALID,0,
2012-06-23, 01:25:05,VALID,918.087,VALID,0,VALID,96.9546,VALID,0,VALID,18.9647,VALID,360,VALID,0,
2012-06-23, 01:26:05,VALID,918.095,VALID,0,VALID,96.8936,VALID,0,VALID,18.9452,VALID,45,VALID,0,
2012-06-23, 01:27:05,VALID,918.092,VALID,0,VALID,96.886,VALID,0,VALID,18.9828,VALID,45,VALID,0,
2012-06-23, 01:28:05,VALID,918.112,VALID,0,VALID,96.9165,VALID,0,VALID,19.0427,VALID,45,VALID,0,
2012-06-23, 01:29:05,VALID,918.097,VALID,0,VALID,96.8021,VALID,0,VALID,19.0232,VALID,44,VALID,0,
2012-06-23, 01:30:05,VALID,918.039,VALID,0,VALID,96.8326,VALID,0,VALID,19.0427,VALID,53,VALID,0,
2012-06-23, 01:31:05,VALID,918.011,VALID,0,VALID,96.7107,VALID,0,VALID,18.9828,VALID,80,VALID,0,
2012-06-23, 01:32:05,VALID,917.987,VALID,0,VALID,96.7183,VALID,0,VALID,18.9647,VALID,94,VALID,0,
2012-06-23, 01:33:05,VALID,917.932,VALID,0,VALID,96.7107,VALID,0,VALID,18.9048,VALID,97,VALID,0,
2012-06-23, 01:34:05,VALID,917.93,VALID,0,VALID,96.7564,VALID,0,VALID,18.8658,VALID,96,VALID,0,
2012-06-23, 01:35:05,VALID,917.91,VALID,0,VALID,96.8174,VALID,0,VALID,18.8463,VALID,103,VALID,0,
2012-06-23, 01:36:05,VALID,917.875,VALID,0,VALID,96.8021,VALID,0,VALID,18.8282,VALID,111,VALID,0,
2012-06-23, 01:37:05,VALID,917.853,VALID,0,VALID,96.7564,VALID,0,VALID,18.7892,VALID,114,VALID,0,
2012-06-23, 01:38:05,VALID,917.851,VALID,0,VALID,96.7488,VALID,0,VALID,18.7308,VALID,114,VALID,0,
2012-06-23, 01:39:05,VALID,917.835,VALID,0,VALID,96.7869,VALID,0,VALID,18.7098,VALID,104,VALID,0,
2012-06-23, 01:40:05,VALID,917.81,VALID,0,VALID,96.8174,VALID,0,VALID,18.7113,VALID,105,VALID,0,
2012-06-23, 01:41:05,VALID,917.829,VALID,0,VALID,96.7869,VALID,0,VALID,18.7113,VALID,105,VALID,0,
2012-06-23, 01:42:05,VALID,917.81,VALID,0,VALID,96.8021,VALID,0,VALID,18.6918,VALID,105,VALID,0,
2012-06-23, 01:43:05,VALID,917.844,VALID,0,VALID,96.7945,VALID,0,VALID,18.7113,VALID,105,VALID,0,
2012-06-23, 01:44:05,VALID,917.829,VALID,0,VALID,96.8707,VALID,0,VALID,18.7113,VALID,105,VALID,0,
2012-06-23, 01:45:05,VALID,917.838,VALID,0,VALID,96.8936,VALID,0,VALID,18.7308,VALID,105,VALID,0,
2012-06-23, 01:46:05,VALID,917.862,VALID,0,VALID,96.9622,VALID,0,VALID,18.7697,VALID,105,VALID,0,
2012-06-23, 01:47:05,VALID,917.843,VALID,0,VALID,96.9927,VALID,0,VALID,18.7892,VALID,105,VALID,0,
2012-06-23, 01:48:05,VALID,917.808,VALID,0,VALID,97.008,VALID,0,VALID,18.8087,VALID,105,VALID,0,
2012-06-23, 01:49:05,VALID,917.79,VALID,0,VALID,96.9851,VALID,0,VALID,18.8073,VALID,105,VALID,0,
2012-06-23, 01:50:05,VALID,917.785,VALID,0,VALID,96.9546,VALID,0,VALID,18.8087,VALID,105,VALID,0,
2012-06-23, 01:51:05,VALID,917.788,VALID,0,VALID,96.947,VALID,0,VALID,18.7892,VALID,105,VALID,0,
2012-06-23, 01:52:05,VALID,917.79,VALID,0,VALID,96.9775,VALID,0,VALID,18.7892,VALID,105,VALID,0,
2012-06-23, 01:53:05,VALID,917.794,VALID,0,VALID,96.9622,VALID,0,VALID,18.7892,VALID,105,VALID,0,
2012-06-23, 01:54:05,VALID,917.738,VALID,0,VALID,97.0003,VALID,0,VALID,18.7878,VALID,105,VALID,0,
2012-06-23, 01:55:05,VALID,917.714,VALID,0,VALID,97.0461,VALID,0,VALID,18.8087,VALID,105,VALID,0,
2012-06-23, 01:56:05,VALID,917.655,VALID,0,VALID,97.0461,VALID,0,VALID,18.8087,VALID,105,VALID,0,
2012-06-23, 01:57:05,VALID,917.627,VALID,0,VALID,97.0537,VALID,0,VALID,18.8073,VALID,105,VALID,0,
2012-06-23, 01:58:05,VALID,917.564,VALID,0,VALID,97.0766,VALID,0,VALID,18.7683,VALID,105,VALID,0,
2012-06-23, 01:59:05,VALID,917.538,VALID,0,VALID,97.008,VALID,0,VALID,18.7293,VALID,105,VALID,0,
2012-06-23, 02:00:05,VALID,917.536,VALID,0,VALID,97.0156,VALID,0,VALID,18.7308,VALID,105,VALID,0,
2012-06-23, 02:01:05,VALID,917.524,VALID,0,VALID,97.0537,VALID,0,VALID,18.7308,VALID,105,VALID,0,
2012-06-23, 02:02:05,VALID,917.519,VALID,0,VALID,97.0766,VALID,0,VALID,18.7308,VALID,105,VALID,0,
2012-06-23, 02:03:05,VALID,917.47,VALID,0,VALID,97.069,VALID,0,VALID,18.7113,VALID,105,VALID,0,
2012-06-23, 02:04:05,VALID,917.416,VALID,0,VALID,97.0156,VALID,0,VALID,18.6319,VALID,105,VALID,0,
2012-06-23, 02:05:05,VALID,917.416,VALID,0,VALID,97.008,VALID,0,VALID,18.5943,VALID,105,VALID,0,
2012-06-23, 02:06:05,VALID,917.393,VALID,0,VALID,97.069,VALID,0,VALID,18.5748,VALID,105,VALID,0,
2012-06-23, 02:07:05,VALID,917.386,VALID,0,VALID,97.0461,VALID,0,VALID,18.5553,VALID,105,VALID,0,
2012-06-23, 02:08:05,VALID,917.361,VALID,0,VALID,97.0385,VALID,0,VALID,18.4968,VALID,105,VALID,0,
2012-06-23, 02:09:05,VALID,917.315,VALID,0,VALID,97.0842,VALID,0,VALID,18.4773,VALID,105,VALID,0,
2012-06-23, 02:10:05,VALID,917.273,VALID,0,VALID,97.1071,VALID,0,VALID,18.4578,VALID,105,VALID,0,
2012-06-23, 02:11:05,VALID,917.263,VALID,0,VALID,97.1528,VALID,0,VALID,18.4578,VALID,105,VALID,0,
2012-06-23, 02:12:05,VALID,917.286,VALID,0,VALID,97.1071,VALID,0,VALID,18.4188,VALID,105,VALID,0,
2012-06-23, 02:13:05,VALID,917.294,VALID,0,VALID,97.1376,VALID,0,VALID,18.3798,VALID,105,VALID,0,
2012-06-23, 02:14:05,VALID,917.298,VALID,0,VALID,97.1528,VALID,0,VALID,18.3798,VALID,105,VALID,0,
2012-06-23, 02:15:05,VALID,917.314,VALID,0,VALID,97.1986,VALID,0,VALID,18.3798,VALID,105,VALID,0,
2012-06-23, 02:16:05,VALID,917.329,VALID,0,VALID,97.1604,VALID,0,VALID,18.3603,VALID,119,VALID,0,
2012-06-23, 02:17:05,VALID,917.359,VALID,0,VALID,97.1757,VALID,0,VALID,18.3394,VALID,178,VALID,0,
2012-06-23, 02:18:05,VALID,917.383,VALID,0,VALID,97.2214,VALID,0,VALID,18.3394,VALID,178,VALID,0,
2012-06-23, 02:19:05,VALID,917.38,VALID,0,VALID,97.29,VALID,0,VALID,18.3784,VALID,197,VALID,0,
2012-06-23, 02:20:05,VALID,917.351,VALID,0,VALID,97.3281,VALID,0,VALID,18.4369,VALID,188,VALID,0,
2012-06-23, 02:21:05,VALID,917.322,VALID,0,VALID,97.2824,VALID,0,VALID,18.4174,VALID,188,VALID,0,
2012-06-23, 02:22:05,VALID,917.298,VALID,0,VALID,97.2748,VALID,0,VALID,18.4578,VALID,187,VALID,0,
2012-06-23, 02:23:05,VALID,917.285,VALID,0,VALID,97.29,VALID,0,VALID,18.4773,VALID,187,VALID,0,
2012-06-23, 02:24:05,VALID,917.249,VALID,0,VALID,97.3053,VALID,0,VALID,18.5163,VALID,188,VALID,0,
2012-06-23, 02:25:05,VALID,917.233,VALID,0,VALID,97.2367,VALID,0,VALID,18.4564,VALID,188,VALID,0,
2012-06-23, 02:26:05,VALID,917.198,VALID,0,VALID,97.1604,VALID,0,VALID,18.3979,VALID,187,VALID,0,
2012-06-23, 02:27:05,VALID,917.171,VALID,0,VALID,97.1223,VALID,0,VALID,18.3394,VALID,148,VALID,0,
2012-06-23, 02:28:05,VALID,917.195,VALID,0,VALID,97.1528,VALID,0.107441,VALID,18.3394,VALID,148,VALID,0,
2012-06-23, 02:29:05,VALID,917.185,VALID,0,VALID,97.1833,VALID,0,VALID,18.3589,VALID,148,VALID,0,
2012-06-23, 02:30:05,VALID,917.174,VALID,0,VALID,97.1986,VALID,0,VALID,18.3589,VALID,148,VALID,0,
2012-06-23, 02:31:05,VALID,917.18,VALID,0,VALID,97.0308,VALID,0,VALID,18.3603,VALID,148,VALID,0,
2012-06-23, 02:32:05,VALID,917.166,VALID,0,VALID,97.069,VALID,0,VALID,18.3199,VALID,148,VALID,0,
2012-06-23, 02:33:05,VALID,917.179,VALID,0,VALID,97.1376,VALID,0,VALID,18.3589,VALID,148,VALID,0,
2012-06-23, 02:34:05,VALID,917.14,VALID,0,VALID,97.1681,VALID,0,VALID,18.4188,VALID,148,VALID,0,
2012-06-23, 02:35:05,VALID,917.136,VALID,0,VALID,97.0766,VALID,0.107441,VALID,18.3979,VALID,148,VALID,0,
2012-06-23, 02:36:05,VALID,917.131,VALID,0,VALID,96.8174,VALID,0,VALID,18.3603,VALID,148,VALID,0,
2012-06-23, 02:37:05,VALID,917.106,VALID,0,VALID,96.9241,VALID,0,VALID,18.3394,VALID,148,VALID,0,
2012-06-23, 02:38:05,VALID,917.14,VALID,0,VALID,96.9546,VALID,0,VALID,18.3394,VALID,148,VALID,0,
2012-06-23, 02:39:05,VALID,917.122,VALID,0,VALID,96.9012,VALID,0.107441,VALID,18.3004,VALID,149,VALID,0,
2012-06-23, 02:40:05,VALID,917.137,VALID,0,VALID,96.8326,VALID,0,VALID,18.2628,VALID,158,VALID,0,
2012-06-23, 02:41:05,VALID,917.129,VALID,0,VALID,96.9622,VALID,0,VALID,18.242,VALID,158,VALID,0,
2012-06-23, 02:42:04,VALID,917.172,VALID,0,VALID,96.9394,VALID,0,VALID,18.242,VALID,164,VALID,0,
2012-06-23, 02:43:04,VALID,917.215,VALID,0,VALID,96.9394,VALID,0,VALID,18.2238,VALID,161,VALID,0,
2012-06-23, 02:44:04,VALID,917.219,VALID,0,VALID,96.9317,VALID,0,VALID,18.1654,VALID,161,VALID,0,
2012-06-23, 02:45:04,VALID,917.233,VALID,0,VALID,96.9546,VALID,0,VALID,18.1459,VALID,161,VALID,0,
2012-06-23, 02:46:04,VALID,917.221,VALID,0,VALID,96.9927,VALID,0,VALID,18.086,VALID,161,VALID,0,
2012-06-23, 02:47:04,VALID,917.249,VALID,0,VALID,97.0613,VALID,0,VALID,18.0665,VALID,161,VALID,0,
2012-06-23, 02:48:04,VALID,917.254,VALID,0,VALID,97.0766,VALID,0.107441,VALID,18.0665,VALID,161,VALID,0,
2012-06-23, 02:49:04,VALID,917.262,VALID,0,VALID,97.0232,VALID,0,VALID,18.0275,VALID,147,VALID,0,
2012-06-23, 02:50:04,VALID,917.284,VALID,0,VALID,97.0766,VALID,0,VALID,18.0289,VALID,112,VALID,0,
2012-06-23, 02:51:04,VALID,917.268,VALID,0,VALID,97.0842,VALID,0,VALID,17.9886,VALID,112,VALID,0,
2012-06-23, 02:52:04,VALID,917.27,VALID,0,VALID,97.1986,VALID,0,VALID,18.0275,VALID,121,VALID,0,
2012-06-23, 02:53:04,VALID,917.285,VALID,0,VALID,97.2824,VALID,0,VALID,18.1069,VALID,128,VALID,0,
2012-06-23, 02:54:04,VALID,917.27,VALID,0,VALID,97.3205,VALID,0,VALID,18.1264,VALID,121,VALID,0,
2012-06-23, 02:55:04,VALID,917.313,VALID,0,VALID,97.29,VALID,0,VALID,18.1459,VALID,117,VALID,0,
2012-06-23, 02:56:04,VALID,917.292,VALID,0,VALID,97.2519,VALID,0,VALID,18.1445,VALID,119,VALID,0,
2012-06-23, 02:57:04,VALID,917.286,VALID,0,VALID,97.2443,VALID,0,VALID,18.1445,VALID,119,VALID,0,
2012-06-23, 02:58:04,VALID,917.299,VALID,0,VALID,97.2214,VALID,0,VALID,18.1654,VALID,118,VALID,0,
2012-06-23, 02:59:04,VALID,917.29,VALID,0,VALID,97.2214,VALID,0,VALID,18.164,VALID,123,VALID,0,
2012-06-23, 03:00:04,VALID,917.292,VALID,0,VALID,97.2443,VALID,0,VALID,18.2238,VALID,123,VALID,0,
2012-06-23, 03:01:04,VALID,917.29,VALID,0,VALID,97.2214,VALID,0,VALID,18.2225,VALID,147,VALID,0,
2012-06-23, 03:02:04,VALID,917.263,VALID,0,VALID,97.1833,VALID,0,VALID,18.2225,VALID,138,VALID,0,
2012-06-23, 03:03:04,VALID,917.227,VALID,0,VALID,97.1681,VALID,0,VALID,18.2225,VALID,131,VALID,0,
2012-06-23, 03:04:04,VALID,917.24,VALID,0,VALID,97.1604,VALID,0,VALID,18.2433,VALID,128,VALID,0,
2012-06-23, 03:05:04,VALID,917.21,VALID,0,VALID,97.1452,VALID,0,VALID,18.2238,VALID,134,VALID,0,
2012-06-23, 03:06:04,VALID,917.215,VALID,0,VALID,97.1528,VALID,0,VALID,18.2044,VALID,135,VALID,0,
2012-06-23, 03:07:04,VALID,917.2,VALID,0,VALID,97.1909,VALID,0,VALID,18.203,VALID,130,VALID,0,
2012-06-23, 03:08:04,VALID,917.153,VALID,0,VALID,97.2062,VALID,0,VALID,18.1835,VALID,130,VALID,0,
2012-06-23, 03:09:04,VALID,917.165,VALID,0,VALID,97.2062,VALID,0,VALID,18.1835,VALID,130,VALID,0,
2012-06-23, 03:10:04,VALID,917.149,VALID,0,VALID,97.2214,VALID,0,VALID,18.203,VALID,130,VALID,0,
2012-06-23, 03:11:04,VALID,917.157,VALID,0,VALID,97.2062,VALID,0,VALID,18.2225,VALID,130,VALID,0,
2012-06-23, 03:12:04,VALID,917.131,VALID,0,VALID,97.2062,VALID,0,VALID,18.2615,VALID,130,VALID,0,
2012-06-23, 03:13:04,VALID,917.089,VALID,0,VALID,97.1833,VALID,0,VALID,18.2809,VALID,129,VALID,0,
2012-06-23, 03:14:04,VALID,917.124,VALID,0,VALID,97.1071,VALID,0,VALID,18.3199,VALID,123,VALID,0,
2012-06-23, 03:15:04,VALID,917.056,VALID,0,VALID,97.069,VALID,0,VALID,18.3798,VALID,121,VALID,0,
2012-06-23, 03:16:04,VALID,917.031,VALID,0,VALID,96.9775,VALID,0,VALID,18.3589,VALID,118,VALID,0,
2012-06-23, 03:17:04,VALID,917.018,VALID,0,VALID,96.9851,VALID,0,VALID,18.3979,VALID,130,VALID,0,
2012-06-23, 03:18:04,VALID,916.997,VALID,0,VALID,96.9012,VALID,0,VALID,18.3979,VALID,132,VALID,0,
2012-06-23, 03:19:04,VALID,916.972,VALID,0,VALID,96.886,VALID,0,VALID,18.4188,VALID,132,VALID,0,
2012-06-23, 03:20:04,VALID,916.972,VALID,0,VALID,96.8631,VALID,0,VALID,18.4578,VALID,130,VALID,0,
2012-06-23, 03:21:04,VALID,916.949,VALID,0,VALID,96.8403,VALID,0,VALID,18.4773,VALID,137,VALID,0,
2012-06-23, 03:22:04,VALID,916.96,VALID,0,VALID,96.7716,VALID,0,VALID,18.4564,VALID,146,VALID,0,
2012-06-23, 03:23:04,VALID,916.979,VALID,0,VALID,96.6954,VALID,0,VALID,18.4773,VALID,142,VALID,0,
2012-06-23, 03:24:04,VALID,916.945,VALID,0,VALID,96.6497,VALID,0,VALID,18.4773,VALID,141,VALID,0,
2012-06-23, 03:25:04,VALID,916.982,VALID,0,VALID,96.6344,VALID,0,VALID,18.4578,VALID,141,VALID,0,
2012-06-23, 03:26:04,VALID,916.963,VALID,0,VALID,96.6039,VALID,0,VALID,18.4578,VALID,134,VALID,0,
2012-06-23, 03:27:04,VALID,916.961,VALID,0,VALID,96.6192,VALID,0,VALID,18.4383,VALID,123,VALID,0,
2012-06-23, 03:28:04,VALID,916.932,VALID,0,VALID,96.6268,VALID,0,VALID,18.4578,VALID,132,VALID,0,
2012-06-23, 03:29:04,VALID,916.906,VALID,0,VALID,96.6344,VALID,0,VALID,18.5163,VALID,124,VALID,0,
2012-06-23, 03:30:04,VALID,916.894,VALID,0,VALID,96.5887,VALID,0,VALID,18.5553,VALID,128,VALID,0,
2012-06-23, 03:31:04,VALID,916.861,VALID,0,VALID,96.5353,VALID,0,VALID,18.5553,VALID,125,VALID,0,
2012-06-23, 03:32:04,VALID,916.858,VALID,0,VALID,96.5124,VALID,0,VALID,18.5553,VALID,120,VALID,0,
2012-06-23, 03:33:04,VALID,916.865,VALID,0,VALID,96.4133,VALID,0,VALID,18.5553,VALID,117,VALID,0,
2012-06-23, 03:34:04,VALID,916.908,VALID,0,VALID,96.3676,VALID,0,VALID,18.5358,VALID,117,VALID,0,
2012-06-23, 03:35:04,VALID,916.895,VALID,0,VALID,96.3905,VALID,0,VALID,18.5553,VALID,117,VALID,0,
2012-06-23, 03:36:04,VALID,916.924,VALID,0,VALID,96.3676,VALID,0,VALID,18.5553,VALID,121,VALID,0,
2012-06-23, 03:37:04,VALID,916.914,VALID,0,VALID,96.4057,VALID,0,VALID,18.5748,VALID,124,VALID,0,
2012-06-23, 03:38:04,VALID,916.966,VALID,0,VALID,96.3295,VALID,0,VALID,18.5358,VALID,126,VALID,0,
2012-06-23, 03:39:04,VALID,916.974,VALID,0,VALID,96.2837,VALID,0,VALID,18.5149,VALID,127,VALID,0,
2012-06-23, 03:40:04,VALID,917.01,VALID,0,VALID,96.2609,VALID,0,VALID,18.5163,VALID,136,VALID,0,
2012-06-23, 03:41:04,VALID,916.991,VALID,0,VALID,96.2761,VALID,0,VALID,18.5358,VALID,145,VALID,0,
2012-06-23, 03:42:04,VALID,917.023,VALID,0,VALID,96.2685,VALID,0,VALID,18.5553,VALID,136,VALID,0,
2012-06-23, 03:43:04,VALID,917.031,VALID,0,VALID,96.1923,VALID,0,VALID,18.5358,VALID,125,VALID,0,
2012-06-23, 03:44:04,VALID,917.041,VALID,0,VALID,96.1465,VALID,0,VALID,18.4773,VALID,127,VALID,0,
2012-06-23, 03:45:04,VALID,917.055,VALID,0,VALID,96.2075,VALID,0,VALID,18.4968,VALID,125,VALID,0,
2012-06-23, 03:46:04,VALID,917.043,VALID,0,VALID,96.1694,VALID,0,VALID,18.4759,VALID,130,VALID,0,
2012-06-23, 03:47:04,VALID,917.062,VALID,0,VALID,96.1541,VALID,0,VALID,18.4564,VALID,136,VALID,0,
2012-06-23, 03:48:04,VALID,917.076,VALID,0,VALID,96.1465,VALID,0,VALID,18.4578,VALID,121,VALID,0,
2012-06-23, 03:49:04,VALID,917.097,VALID,0,VALID,96.116,VALID,0,VALID,18.4578,VALID,130,VALID,0,
2012-06-23, 03:50:04,VALID,917.091,VALID,0,VALID,96.1236,VALID,0,VALID,18.4188,VALID,128,VALID,0,
2012-06-23, 03:51:04,VALID,917.121,VALID,0,VALID,96.0855,VALID,0,VALID,18.4188,VALID,123,VALID,0,
2012-06-23, 03:52:04,VALID,917.137,VALID,0,VALID,96.0703,VALID,0,VALID,18.3603,VALID,123,VALID,0,
2012-06-23, 03:53:04,VALID,917.137,VALID,0,VALID,96.0932,VALID,0,VALID,18.3199,VALID,123,VALID,0,
2012-06-23, 03:54:04,VALID,917.127,VALID,0,VALID,96.1389,VALID,0,VALID,18.3213,VALID,123,VALID,0,
2012-06-23, 03:55:04,VALID,917.078,VALID,0,VALID,96.3219,VALID,0,VALID,18.3603,VALID,123,VALID,0,
2012-06-23, 03:56:04,VALID,917.088,VALID,0,VALID,96.3142,VALID,0,VALID,18.3603,VALID,123,VALID,0,
2012-06-23, 03:57:04,VALID,917.082,VALID,0,VALID,96.3829,VALID,0,VALID,18.3798,VALID,123,VALID,0,
2012-06-23, 03:58:04,VALID,917.031,VALID,0,VALID,96.4133,VALID,0,VALID,18.4383,VALID,123,VALID,0,
2012-06-23, 03:59:04,VALID,917.015,VALID,0,VALID,96.4362,VALID,0,VALID,18.4773,VALID,123,VALID,0,